����,�O�C���x,�����t���O,�O�C���x,�����t���O,�󒲎����x,�����t���O,�󒲎����x,�����t���O,��󒲎����x,�����t���O,����,�����t���O
2004/4/1 0:00,8.4,0,45,0,19.8,0,35.4,0,18.1,0,14.9,
2004/4/1 0:15,8.3,0,45,0,20.2,0,35.8,0,18,0,15,
2004/4/1 0:30,8.2,0,47,0,20.4,0,36,0,17.9,0,15,
2004/4/1 0:45,7.9,0,49,0,20.6,0,35.7,0,17.8,0,14.9,
2004/4/1 1:00,7.7,0,51,0,20.6,0,35.7,0,17.7,0,14.9,
2004/4/1 1:15,7.4,0,52,0,20.8,0,35.7,0,17.6,0,14.9,
2004/4/1 1:30,7.4,0,56,0,20.4,0,32.7,0,17.6,0,14.9,
2004/4/1 1:45,7.7,0,54,0,20.7,0,33.8,0,17.5,0,14.9,
2004/4/1 2:00,7.5,0,55,0,20.8,0,34.3,0,17.4,0,14.9,
2004/4/1 2:15,7.5,0,54,0,21,0,35.1,0,17.4,0,14.6,
2004/4/1 2:30,7.3,0,55,0,21.1,0,36.2,0,17.3,0,14.6,
2004/4/1 2:45,7.1,0,55,0,20.6,0,31.6,0,17.2,0,14.6,
2004/4/1 3:00,6.8,0,58,0,19.8,0,32.2,0,17.2,0,14.6,
2004/4/1 3:15,6.7,0,58,0,19.5,0,32.6,0,17.2,0,14.6,
2004/4/1 3:30,6.9,0,57,0,19.1,0,32.7,0,17.2,0,14.5,
2004/4/1 3:45,7,0,54,0,18.8,0,32.7,0,17.1,0,14.5
2004/4/1 4:00,6.9,0,55,0,18.6,0,32.8,0,17,0,14.5
2004/4/1 4:15,6.8,0,55,0,18.4,0,32.9,0,16.9,0,14.5
2004/4/1 4:30,6.8,0,56,0,18.2,0,33.1,0,16.8,0,14.5
2004/4/1 4:45,7,0,55,0,18.1,0,33.3,0,16.8,0,14.5
2004/4/1 5:00,7,0,57,0,18,0,33.4,0,16.7,0,14.5
2004/4/1 5:15,6.9,0,57,0,17.8,0,33.5,0,16.6,0,14.5
2004/4/1 5:30,6.8,0,57,0,17.7,0,33.6,0,16.5,0,14.5
2004/4/1 5:45,6.7,0,58,0,17.5,0,33.6,0,16.4,0,14.5
2004/4/1 6:00,6.9,0,57,0,17.4,0,33.6,0,16.4,0,14.5
2004/4/1 6:15,6.9,0,59,0,17.3,0,34,0,16.3,0,14.4
2004/4/1 6:30,6.9,0,61,0,17.2,0,34,0,16.2,0,14.4
2004/4/1 6:45,7.3,0,61,0,17.2,0,34.4,0,16.2,0,14.4
2004/4/1 7:00,7.7,0,59,0,17.1,0,34.3,0,16.1,0,14.4
2004/4/1 7:15,8.2,0,56,0,17.1,0,34.5,0,16.1,0,14.3
2004/4/1 7:30,8.7,0,53,0,17.1,0,34.5,0,16,0,14.3
2004/4/1 7:45,9.3,0,48,0,17.2,0,34.7,0,16,0,14.3
2004/4/1 8:00,9.9,0,44,0,17.2,0,34.7,0,16,0,14.3
2004/4/1 8:15,11,0,44,0,17.2,0,35,0,16,0,14.3
2004/4/1 8:30,11.7,0,44,0,17.2,0,35.2,0,16,0,14.3
2004/4/1 8:45,12.2,0,40,0,17.3,0,35.3,0,16.1,0,14.3
2004/4/1 9:00,12.9,0,39,0,17.3,0,35.4,0,16.1,0,14.3
2004/4/1 9:15,13.9,0,35,0,17.4,0,35.6,0,16.1,0,14.3
2004/4/1 9:30,14.8,0,31,0,17.4,0,35.8,0,16.2,0,14.2
2004/4/1 9:45,15.4,0,29,0,17.4,0,36.1,0,16.3,0,14.2
2004/4/1 10:00,15.4,0,30,0,17.3,0,36.2,0,16.3,0,14.2
2004/4/1 10:15,15.3,0,29,0,17.3,0,36.5,0,16.3,0,14.2
2004/4/1 10:30,15.5,0,29,0,17.3,0,36.6,0,16.4,0,14.2
2004/4/1 10:45,16.4,0,23,0,17.3,0,36.7,0,16.4,0,14.2
2004/4/1 11:00,17,0,21,0,17.4,0,36.8,0,16.5,0,14.2
2004/4/1 11:15,17.1,0,21,0,17.4,0,36.9,0,16.5,0,14.2
2004/4/1 11:30,17.2,0,22,0,17.4,0,37,0,16.6,0,14.2
2004/4/1 11:45,17.4,0,22,0,17.4,0,37.1,0,16.7,0,14.2
2004/4/1 12:00,17.3,0,23,0,17.4,0,37.1,0,16.7,0,14.2
2004/4/1 12:15,17.5,0,22,0,17.4,0,37.3,0,16.8,0,14.2
2004/4/1 12:30,17.6,0,21,0,17.4,0,37.3,0,16.9,0,14.2
2004/4/1 12:45,17.8,0,21,0,17.4,0,37.5,0,16.9,0,14.2
2004/4/1 13:00,17.8,0,21,0,17.4,0,37.4,0,17,0,14.2
2004/4/1 13:15,17.9,0,20,0,17.4,0,37.5,0,17,0,14.2
2004/4/1 13:30,17.8,0,22,0,17.4,0,37.6,0,17.1,0,14.2
2004/4/1 13:45,17.4,0,23,0,17.4,0,37.7,0,17.1,0,14.2
2004/4/1 14:00,17.4,0,25,0,17.4,0,37.7,0,17.2,0,14.3
2004/4/1 14:15,17.2,0,26,0,17.4,0,37.7,0,17.2,0,14.3
2004/4/1 14:30,17,0,27,0,17.4,0,37.8,0,17.3,0,14.3
2004/4/1 14:45,16.9,0,27,0,17.4,0,37.8,0,17.3,0,14.3
2004/4/1 15:00,16.9,0,31,0,17.4,0,37.8,0,17.3,0,14.3
2004/4/1 15:15,16.7,0,30,0,17.4,0,37.8,0,17.3,0,14.3
2004/4/1 15:30,16.9,0,30,0,17.4,0,37.9,0,17.4,0,14.3
2004/4/1 15:45,16.7,0,31,0,17.4,0,38.1,0,17.4,0,14.3
2004/4/1 16:00,16.5,0,32,0,17.4,0,38.3,0,17.4,0,14.3
2004/4/1 16:15,16.2,0,35,0,17.4,0,38.4,0,17.4,0,14.3
2004/4/1 16:30,15.8,0,40,0,17.4,0,38.5,0,17.4,0,14.3
2004/4/1 16:45,15.5,0,47,0,17.3,0,38.5,0,17.4,0,14.3
2004/4/1 17:00,15.4,0,50,0,17.8,0,37.9,0,17.4,0,14.3
2004/4/1 17:15,14.5,0,56,0,17.7,0,38.2,0,17.4,0,14.4
2004/4/1 17:30,13.9,0,61,0,17.7,0,38.6,0,17.4,0,14.4
2004/4/1 17:45,13.4,0,65,0,18,0,38,0,17.3,0,14.4
2004/4/1 18:00,12.8,0,74,0,17.7,0,38.8,0,17.3,0,14.4
2004/4/1 18:15,12.3,0,76,0,18.2,0,39,0,17.3,0,14.4
2004/4/1 18:30,12.2,0,75,0,18.6,0,39.1,0,17.3,0,14.4
2004/4/1 18:45,12,0,77,0,19,0,39,0,17.3,0,14.4
2004/4/1 19:00,12,0,77,0,19.2,0,39,0,17.2,0,14.4
2004/4/1 19:15,11.6,0,81,0,19.5,0,39,0,17.2,0,14.4
2004/4/1 19:30,11.3,0,82,0,19.7,0,39.2,0,17.2,0,14.4
2004/4/1 19:45,11.2,0,84,0,19.7,0,39.3,0,17.1,0,14.5
2004/4/1 20:00,11.4,0,85,0,19.6,0,39,0,17.1,0,14.4
2004/4/1 20:15,11.4,0,86,0,19.8,0,38.9,0,17.2,0,14.4
2004/4/1 20:30,11.5,0,86,0,19.9,0,39.3,0,17.1,0,14.4
2004/4/1 20:45,11.4,0,88,0,20.2,0,39.8,0,17.1,0,14.4
2004/4/1 21:00,11.7,0,89,0,20.3,0,39.7,0,17,0,14.4
2004/4/1 21:15,12,0,87,0,20.5,0,39.6,0,17,0,14.4
2004/4/1 21:30,12,0,84,0,20.7,0,40.4,0,17,0,14.4
2004/4/1 21:45,11.8,0,84,0,21,0,40.8,0,16.9,0,14.4
2004/4/1 22:00,11.8,0,85,0,21.1,0,41,0,16.9,0,14.4
2004/4/1 22:15,12.1,0,87,0,21.2,0,41.2,0,16.9,0,14.4
2004/4/1 22:30,12.3,0,88,0,21.2,0,41.4,0,16.8,0,14.4
2004/4/1 22:45,12.4,0,92,0,21.3,0,41.5,0,16.8,0,14.4
2004/4/1 23:00,12.4,0,96,0,21.4,0,41.6,0,16.8,0,14.3
2004/4/1 23:15,12.6,0,98,0,21.5,0,41.6,0,16.8,0,14.3
2004/4/1 23:30,12.9,0,98,0,21.6,0,41.6,0,16.7,0,14.3
2004/4/1 23:45,13.3,0,99,0,21.7,0,42.3,0,16.7,0,14.3
2004/4/2 0:00,13.4,0,99,0,21.4,0,41.3,0,16.8,0,14.3
2004/4/2 0:15,13.5,0,98,0,20.8,0,39.7,0,16.8,0,14.4
2004/4/2 0:30,13.8,0,99,0,20.4,0,39.9,0,16.9,0,14.4
2004/4/2 0:45,13.8,0,99,0,20.1,0,40.1,0,17,0,14.4
2004/4/2 1:00,13.5,0,99,0,19.9,0,40.4,0,17,0,14.4
2004/4/2 1:15,14.4,0,99,0,19.8,0,40.6,0,17,0,14.4
2004/4/2 1:30,14.9,0,95,0,19.6,0,40.9,0,17,0,14.4
2004/4/2 1:45,15,0,94,0,19.5,0,41.3,0,17.1,0,14.4
2004/4/2 2:00,14.8,0,91,0,19.4,0,41.8,0,17,0,14.4
2004/4/2 2:15,14.9,0,88,0,19.3,0,42.2,0,17.1,0,14.4
2004/4/2 2:30,14.6,0,85,0,19.2,0,42.6,0,17.1,0,14.4
2004/4/2 2:45,14.3,0,83,0,19.1,0,43,0,17.1,0,14.5
2004/4/2 3:00,14,0,81,0,19,0,43.3,0,17,0,14.5
2004/4/2 3:15,14,0,78,0,19,0,43.4,0,17,0,14.5
2004/4/2 3:30,13.9,0,75,0,18.9,0,43.5,0,17,0,14.5
2004/4/2 3:45,14,0,72,0,18.8,0,43.8,0,17,0,14.5
2004/4/2 4:00,13.8,0,72,0,18.8,0,43.9,0,17,0,14.6
2004/4/2 4:15,13.8,0,74,0,18.7,0,44,0,17,0,14.6
2004/4/2 4:30,13.6,0,77,0,18.7,0,44.1,0,17,0,14.6
2004/4/2 4:45,13.3,0,77,0,18.6,0,44.2,0,17,0,14.6
2004/4/2 5:00,13.1,0,75,0,18.6,0,44.3,0,17,0,14.6
2004/4/2 5:15,12.8,0,73,0,18.5,0,44.4,0,16.9,0,14.7
2004/4/2 5:30,12.6,0,70,0,18.5,0,44.4,0,16.9,0,14.7
2004/4/2 5:45,12.4,0,69,0,18.4,0,44.3,0,16.8,0,14.7
2004/4/2 6:00,12.1,0,67,0,18.3,0,44.3,0,16.8,0,14.7
2004/4/2 6:15,12.1,0,67,0,18.3,0,44.3,0,16.8,0,14.7
2004/4/2 6:30,12,0,64,0,18.2,0,44.2,0,16.7,0,14.7
2004/4/2 6:45,12,0,62,0,18.2,0,44,0,16.7,0,14.7
2004/4/2 7:00,12.2,0,60,0,18.2,0,43.8,0,16.7,0,14.8
2004/4/2 7:15,12.3,0,59,0,18.2,0,43.7,0,16.7,0,14.8
2004/4/2 7:30,12.4,0,60,0,18.3,0,43.5,0,16.8,0,14.6
2004/4/2 7:45,12.7,0,59,0,18.4,0,43.3,0,16.8,0,14.6
2004/4/2 8:00,13,0,58,0,18.5,0,43,0,16.8,0,14.6
2004/4/2 8:15,13.2,0,56,0,18.7,0,42.7,0,16.9,0,14.6
2004/4/2 8:30,13.2,0,55,0,18.7,0,42.6,0,16.9,0,14.6
2004/4/2 8:45,13.3,0,53,0,18.8,0,42.5,0,17,0,14.7
2004/4/2 9:00,13.5,0,51,0,18.9,0,42.1,0,17.1,0,14.7
2004/4/2 9:15,13.9,0,49,0,19.1,0,41.9,0,17.1,0,14.7
2004/4/2 9:30,14.2,0,48,0,19.2,0,41.6,0,17.2,0,14.7
2004/4/2 9:45,14.4,0,44,0,19.2,0,41.4,0,17.3,0,14.7
2004/4/2 10:00,14.5,0,43,0,19.3,0,41.2,0,17.4,0,14.7
2004/4/2 10:15,14.6,0,42,0,19.4,0,41,0,17.5,0,14.7
2004/4/2 10:30,14.8,0,39,0,19.4,0,40.8,0,17.6,0,14.5
2004/4/2 10:45,15.1,0,40,0,19.5,0,40.6,0,17.6,0,14.5
2004/4/2 11:00,15.5,0,38,0,19.5,0,40.5,0,17.7,0,14.5
2004/4/2 11:15,16,0,38,0,19.9,0,39.9,0,17.7,0,14.5
2004/4/2 11:30,16.2,0,36,0,20.6,0,39.1,0,17.8,0,14.5
2004/4/2 11:45,16.1,0,34,0,21.1,0,39,0,17.8,0,14.5
2004/4/2 12:00,16.5,0,34,0,21.4,0,38.8,0,17.9,0,14.6
2004/4/2 12:15,16.5,0,33,0,21.5,0,38.7,0,18,0,14.6
2004/4/2 12:30,17,0,31,0,21.7,0,38.5,0,18.1,0,14.6
2004/4/2 12:45,17.3,0,31,0,21.8,0,38.4,0,18.1,0,14.6
2004/4/2 13:00,17.4,0,30,0,22,0,38.2,0,18.2,0,14.6
2004/4/2 13:15,18.1,0,27,0,22.1,0,38.3,0,18.3,0,14.6
2004/4/2 13:30,18.3,0,26,0,22.1,0,38.4,0,18.4,0,14.7
2004/4/2 13:45,18.4,0,24,0,22.3,0,38.2,0,18.5,0,14.7
2004/4/2 14:00,18.7,0,22,0,22.4,0,39.1,0,18.6,0,14.7
2004/4/2 14:15,18.5,0,22,0,22.4,0,39,0,18.7,0,14.7
2004/4/2 14:30,18.9,0,24,0,22.5,0,38.8,0,18.8,0,14.7
2004/4/2 14:45,19.1,0,21,0,22.6,0,38.5,0,18.9,0,14.7
2004/4/2 15:00,20.3,0,20,0,22.7,0,40,0,19,0,14.7
2004/4/2 15:15,20.3,0,19,0,22.7,0,39.9,0,19.1,0,14.8
2004/4/2 15:30,20.2,0,22,0,22.6,0,39.8,0,19.3,0,14.7
2004/4/2 15:45,19.6,0,21,0,22.5,0,39.4,0,19.4,0,14.7
2004/4/2 16:00,19.6,0,24,0,22.9,0,38.1,0,19.5,0,14.7
2004/4/2 16:15,18.9,0,26,0,23.1,0,37.8,0,19.6,0,14.7
2004/4/2 16:30,17.8,0,32,0,23.2,0,37.7,0,19.7,0,14.7
2004/4/2 16:45,17.5,0,33,0,22.9,0,38.3,0,19.8,0,14.8
2004/4/2 17:00,17.1,0,35,0,22.7,0,38.7,0,19.8,0,14.8
2004/4/2 17:15,16.5,0,36,0,22.5,0,39.1,0,19.9,0,14.8
2004/4/2 17:30,16.1,0,38,0,22.4,0,39.3,0,19.9,0,14.8
2004/4/2 17:45,15.6,0,40,0,22.4,0,39.7,0,19.9,0,14.9
2004/4/2 18:00,15.2,0,43,0,22.5,0,39.5,0,19.9,0,14.9
2004/4/2 18:15,14.8,0,44,0,22.7,0,39.1,0,19.8,0,14.9
2004/4/2 18:30,14.6,0,46,0,22.4,0,39.6,0,19.8,0,14.8
2004/4/2 18:45,14.3,0,48,0,22.2,0,39.8,0,19.7,0,14.8
2004/4/2 19:00,13.9,0,50,0,22.1,0,38.1,0,19.7,0,14.8
2004/4/2 19:15,13.8,0,47,0,21.8,0,38.1,0,19.7,0,14.8
2004/4/2 19:30,13.6,0,41,0,21.7,0,38.9,0,19.6,0,14.9
2004/4/2 19:45,13.5,0,41,0,21.6,0,39,0,19.6,0,14.9
2004/4/2 20:00,13.3,0,41,0,21.5,0,39.1,0,19.5,0,14.9
2004/4/2 20:15,13.2,0,43,0,21.5,0,39.3,0,19.4,0,14.9
2004/4/2 20:30,13.1,0,45,0,21.3,0,39.3,0,19.4,0,14.9
2004/4/2 20:45,13.1,0,46,0,21.3,0,39.3,0,19.3,0,15
2004/4/2 21:00,12.9,0,50,0,21.2,0,39.4,0,19.2,0,15
2004/4/2 21:15,12.8,0,52,0,21.1,0,39.5,0,19.2,0,15
2004/4/2 21:30,12.7,0,53,0,21.1,0,39.5,0,19.1,0,15
2004/4/2 21:45,12.7,0,54,0,21,0,39.5,0,19,0,15
2004/4/2 22:00,12.6,0,55,0,20.9,0,39.6,0,19,0,15.1
2004/4/2 22:15,12.5,0,57,0,20.8,0,39.7,0,18.9,0,15.1
2004/4/2 22:30,12.1,0,56,0,20.8,0,39.8,0,18.9,0,15.1
2004/4/2 22:45,11.8,0,58,0,20.7,0,39.7,0,18.8,0,15.1
2004/4/2 23:00,11.5,0,61,0,20.6,0,39.7,0,18.8,0,15.1
2004/4/2 23:15,11.1,0,64,0,20.6,0,39.8,0,18.7,0,15.1
2004/4/2 23:30,10.9,0,65,0,20.5,0,39.8,0,18.6,0,15.1
2004/4/2 23:45,10.7,0,65,0,20.4,0,39.9,0,18.6,0,15.2
2004/4/3 0:00,10.5,0,67,0,20,0,38.4,0,18.5,0,14.7
2004/4/3 0:15,10.5,0,68,0,20,0,38.1,0,18.5,0,14.7
2004/4/3 0:30,10.3,0,70,0,19.8,0,38,0,18.5,0,14.8
2004/4/3 0:45,10.9,0,67,0,19.7,0,38.3,0,18.4,0,14.8
2004/4/3 1:00,11,0,65,0,19.6,0,38.3,0,18.4,0,14.8
2004/4/3 1:15,10.9,0,66,0,19.5,0,38.5,0,18.3,0,14.5
2004/4/3 1:30,11,0,65,0,19.4,0,38.9,0,18.3,0,14.5
2004/4/3 1:45,10.8,0,66,0,19.3,0,39,0,18.2,0,14.6
2004/4/3 2:00,11,0,66,0,19.2,0,39.3,0,18.2,0,14.6
2004/4/3 2:15,11,0,66,0,19.1,0,39.4,0,18.1,0,14.6
2004/4/3 2:30,11.4,0,66,0,19,0,39.6,0,18.1,0,14.6
2004/4/3 2:45,11,0,68,0,18.9,0,39.7,0,18,0,14.6
2004/4/3 3:00,11.1,0,67,0,18.8,0,39.7,0,18,0,14.6
2004/4/3 3:15,11.1,0,67,0,18.8,0,39.8,0,17.9,0,14.6
2004/4/3 3:30,10.9,0,68,0,18.7,0,39.9,0,17.9,0,14.6
2004/4/3 3:45,10.7,0,69,0,18.6,0,40,0,17.8,0,14.6
2004/4/3 4:00,10.7,0,70,0,18.5,0,40.2,0,17.7,0,14.7
2004/4/3 4:15,10.3,0,72,0,18.4,0,40.1,0,17.7,0,14.7
2004/4/3 4:30,10.5,0,73,0,18.4,0,40.2,0,17.6,0,14.7
2004/4/3 4:45,10.7,0,71,0,18.3,0,40.3,0,17.6,0,14.7
2004/4/3 5:00,10.3,0,73,0,18.2,0,40.5,0,17.5,0,14.7
2004/4/3 5:15,10.5,0,74,0,18.2,0,40.5,0,17.5,0,14.7
2004/4/3 5:30,10,0,77,0,18.1,0,40.7,0,17.4,0,14.7
2004/4/3 5:45,10,0,78,0,18,0,40.8,0,17.4,0,14.7
2004/4/3 6:00,10.3,0,77,0,18,0,40.8,0,17.3,0,14.7
2004/4/3 6:15,10.5,0,77,0,17.9,0,41,0,17.3,0,14.7
2004/4/3 6:30,10.3,0,78,0,17.9,0,41.1,0,17.2,0,14.7
2004/4/3 6:45,10.5,0,79,0,17.8,0,41.3,0,17.2,0,14.7
2004/4/3 7:00,11,0,78,0,17.8,0,41.3,0,17.1,0,14.7
2004/4/3 7:15,11.4,0,75,0,17.8,0,41.4,0,17.1,0,14.7
2004/4/3 7:30,11.8,0,73,0,17.8,0,41.4,0,17.1,0,14.7
2004/4/3 7:45,12.3,0,72,0,17.8,0,41.5,0,17.1,0,14.7
2004/4/3 8:00,12.8,0,69,0,17.9,0,41.5,0,17.1,0,14.7
2004/4/3 8:15,12.7,0,68,0,17.9,0,41.5,0,17.1,0,14.7
2004/4/3 8:30,13.2,0,67,0,18,0,41.6,0,17.1,0,14.3
2004/4/3 8:45,13.5,0,66,0,18.1,0,41.6,0,17.2,0,14.3
2004/4/3 9:00,13.8,0,64,0,18.2,0,41.6,0,17.2,0,14.4
2004/4/3 9:15,14.6,0,62,0,18.2,0,41.7,0,17.3,0,14.4
2004/4/3 9:30,15.2,0,59,0,18.3,0,41.7,0,17.4,0,14.4
2004/4/3 9:45,15.9,0,56,0,18.4,0,41.8,0,17.4,0,14.4
2004/4/3 10:00,16.4,0,56,0,18.4,0,41.7,0,17.5,0,14.4
2004/4/3 10:15,16.7,0,54,0,18.4,0,41.8,0,17.6,0,14.4
2004/4/3 10:30,17,0,57,0,18.5,0,42.1,0,17.7,0,14.4
2004/4/3 10:45,17,0,58,0,18.5,0,41.9,0,17.8,0,14.4
2004/4/3 11:00,17.2,0,57,0,18.6,0,42.2,0,17.9,0,14.4
2004/4/3 11:15,17.2,0,57,0,18.6,0,42.2,0,17.9,0,14.4
2004/4/3 11:30,17.5,0,55,0,18.7,0,42.2,0,18,0,14.4
2004/4/3 11:45,17.5,0,54,0,18.7,0,42.4,0,18.1,0,14.4
2004/4/3 12:00,17.7,0,53,0,18.8,0,42.6,0,18.3,0,14.4
2004/4/3 12:15,18,0,53,0,18.8,0,42.7,0,18.4,0,14.4
2004/4/3 12:30,18.2,0,51,0,18.9,0,42.7,0,18.4,0,14.4
2004/4/3 12:45,18.9,0,50,0,19,0,42.9,0,18.6,0,14.4
2004/4/3 13:00,18.8,0,50,0,19,0,42.9,0,18.7,0,14.5
2004/4/3 13:15,18.6,0,50,0,19.1,0,43.1,0,18.8,0,14.5
2004/4/3 13:30,18.7,0,50,0,19.1,0,43.2,0,18.9,0,14.4
2004/4/3 13:45,18.8,0,49,0,19.2,0,43.5,0,19,0,14.4
2004/4/3 14:00,18.3,0,47,0,19.2,0,43.7,0,19.1,0,14.4
2004/4/3 14:15,17.6,0,48,0,19.3,0,44.3,0,19.1,0,14.5
2004/4/3 14:30,17,0,47,0,19.4,0,45,0,19.2,0,14.5
2004/4/3 14:45,16.7,0,46,0,19.4,0,45.1,0,19.3,0,14.4
2004/4/3 15:00,16.9,0,44,0,19.5,0,45.6,0,19.3,0,14.5
2004/4/3 15:15,16.6,0,45,0,19.5,0,45.5,0,19.4,0,14.5
2004/4/3 15:30,16.3,0,44,0,19.7,0,45.9,0,19.4,0,14.5
2004/4/3 15:45,16.1,0,44,0,19.7,0,45.8,0,19.4,0,14.5
2004/4/3 16:00,15.9,0,46,0,19.8,0,45.7,0,19.4,0,14.5
2004/4/3 16:15,15.8,0,48,0,19.8,0,45.6,0,19.5,0,14.5
2004/4/3 16:30,15.7,0,52,0,19.9,0,45.5,0,19.5,0,14.6
2004/4/3 16:45,15.3,0,56,0,20,0,45.4,0,19.5,0,14.6
2004/4/3 17:00,14.9,0,56,0,19.9,0,45.3,0,19.5,0,14.6
2004/4/3 17:15,14.7,0,60,0,20,0,45.6,0,19.5,0,14.6
2004/4/3 17:30,14.4,0,60,0,19.9,0,45.3,0,19.4,0,14.6
2004/4/3 17:45,14.2,0,57,0,20,0,44.1,0,19.4,0,14.5
2004/4/3 18:00,14,0,55,0,19.9,0,43.8,0,19.4,0,14.6
2004/4/3 18:15,13.7,0,54,0,19.8,0,43.5,0,19.3,0,14.6
2004/4/3 18:30,13.6,0,56,0,19.9,0,43.4,0,19.3,0,14.6
2004/4/3 18:45,13.6,0,55,0,19.8,0,43,0,19.2,0,14.6
2004/4/3 19:00,13.5,0,55,0,19.8,0,43.4,0,19.1,0,14.7
2004/4/3 19:15,13.4,0,55,0,19.8,0,43.1,0,19.1,0,14.7
2004/4/3 19:30,13.3,0,55,0,19.8,0,43.1,0,19,0,14.7
2004/4/3 19:45,13.4,0,56,0,19.7,0,43.3,0,19,0,14.7
2004/4/3 20:00,13.3,0,56,0,19.8,0,43.6,0,18.9,0,14.7
2004/4/3 20:15,13.3,0,54,0,20.3,0,45.2,0,18.9,0,14.7
2004/4/3 20:30,13.1,0,52,0,20.7,0,46.2,0,18.9,0,14.8
2004/4/3 20:45,13.2,0,52,0,21.3,0,46.7,0,18.9,0,14.8
2004/4/3 21:00,12.8,0,58,0,21.6,0,45.9,0,18.9,0,14.8
2004/4/3 21:15,12.4,0,64,0,22.1,0,47.3,0,18.9,0,14.8
2004/4/3 21:30,12.4,0,65,0,22.5,0,48,0,18.8,0,14.9
2004/4/3 21:45,12.2,0,72,0,22.8,0,48.5,0,18.8,0,14.9
2004/4/3 22:00,11.9,0,75,0,23,0,48.1,0,18.7,0,14.9
2004/4/3 22:15,11.3,0,76,0,23.2,0,48.3,0,18.7,0,14.6
2004/4/3 22:30,11.2,0,80,0,22.8,0,45.8,0,18.6,0,14.7
2004/4/3 22:45,11.1,0,78,0,22.5,0,45.9,0,18.6,0,14.7
2004/4/3 23:00,11.3,0,82,0,22.3,0,45.8,0,18.6,0,14.7
2004/4/3 23:15,11.2,0,83,0,22.1,0,45.5,0,18.5,0,14.6
2004/4/3 23:30,11.1,0,82,0,22,0,45.5,0,18.5,0,14.6
2004/4/3 23:45,11.2,0,83,0,21.8,0,45.4,0,18.4,0,14.6
2004/4/4 0:00,10.8,0,85,0,21.8,0,45.9,0,18.4,0,14.6
2004/4/4 0:15,10.7,0,87,0,21.5,0,44.3,0,18.4,0,14.7
2004/4/4 0:30,10.5,0,87,0,21.2,0,42.7,0,18.4,0,14.7
2004/4/4 0:45,10.4,0,88,0,21,0,42.6,0,18.4,0,14.6
2004/4/4 1:00,10,0,89,0,20.8,0,42.6,0,18.4,0,14.6
2004/4/4 1:15,10,0,92,0,20.6,0,42.4,0,18.4,0,14.6
2004/4/4 1:30,9.8,0,95,0,20.5,0,42.5,0,18.4,0,14.6
2004/4/4 1:45,9.8,0,97,0,20.3,0,42.5,0,18.3,0,14.7
2004/4/4 2:00,9.5,0,97,0,20.2,0,42.5,0,18.3,0,14.7
2004/4/4 2:15,9.5,0,98,0,20,0,42.5,0,18.3,0,14.7
2004/4/4 2:30,9.6,0,98,0,19.9,0,42.7,0,18.2,0,14.7
2004/4/4 2:45,9.3,0,99,0,19.8,0,42.9,0,18.2,0,14.7
2004/4/4 3:00,9.3,0,99,0,19.7,0,42.9,0,18.1,0,14.7
2004/4/4 3:15,9.1,0,99,0,19.6,0,43.1,0,18.1,0,14.7
2004/4/4 3:30,8.8,0,99,0,19.5,0,43.1,0,18,0,14.7
2004/4/4 3:45,8.6,0,99,0,19.4,0,43.1,0,18,0,14.7
2004/4/4 4:00,8.4,0,99,0,19.3,0,43.2,0,18,0,14.7
2004/4/4 4:15,8.1,0,99,0,19.2,0,43.4,0,17.9,0,14.7
2004/4/4 4:30,8,0,99,0,19.1,0,43.3,0,17.8,0,14.7
2004/4/4 4:45,7.9,0,99,0,19,0,43.5,0,17.8,0,14.8
2004/4/4 5:00,8,0,99,0,19,0,43.5,0,17.7,0,14.8
2004/4/4 5:15,8.2,0,99,0,18.9,0,43.5,0,17.7,0,14.8
2004/4/4 5:30,8.2,0,98,0,18.8,0,43.6,0,17.7,0,14.8
2004/4/4 5:45,8.1,0,99,0,18.7,0,43.8,0,17.6,0,14.8
2004/4/4 6:00,8.5,0,99,0,18.7,0,43.8,0,17.6,0,14.8
2004/4/4 6:15,8.4,0,98,0,18.6,0,43.9,0,17.5,0,14.8
2004/4/4 6:30,8.4,0,98,0,18.5,0,43.9,0,17.4,0,14.8
2004/4/4 6:45,8.5,0,98,0,18.4,0,44,0,17.4,0,14.8
2004/4/4 7:00,8.7,0,97,0,18.4,0,44.1,0,17.4,0,14.8
2004/4/4 7:15,8.5,0,95,0,18.3,0,44.2,0,17.3,0,14.8
2004/4/4 7:30,8.5,0,95,0,18.3,0,44.2,0,17.3,0,14.8
2004/4/4 7:45,8.7,0,96,0,18.2,0,44.3,0,17.2,0,14.8
2004/4/4 8:00,9,0,94,0,18.2,0,44.3,0,17.2,0,14.7
2004/4/4 8:15,9,0,90,0,18.1,0,44.4,0,17.1,0,14.7
2004/4/4 8:30,9.4,0,89,0,18.1,0,44.5,0,17.1,0,14.7
2004/4/4 8:45,9.8,0,87,0,18.1,0,44.5,0,17.1,0,14.7
2004/4/4 9:00,10.5,0,84,0,18.2,0,44.2,0,17.1,0,14.7
2004/4/4 9:15,10.5,0,81,0,18.3,0,44,0,17.1,0,14.7
2004/4/4 9:30,10.8,0,75,0,18.5,0,43.8,0,17.2,0,14.7
2004/4/4 9:45,11.5,0,72,0,18.5,0,43.6,0,17.3,0,14.7
2004/4/4 10:00,11.7,0,71,0,18.5,0,43.7,0,17.3,0,14.7
2004/4/4 10:15,11.1,0,69,0,18.4,0,43.8,0,17.3,0,14.7
2004/4/4 10:30,11.6,0,70,0,18.5,0,43.6,0,17.3,0,14.7
2004/4/4 10:45,12.4,0,63,0,18.6,0,43.4,0,17.4,0,14.7
2004/4/4 11:00,12.3,0,61,0,18.5,0,43.4,0,17.4,0,14.7
2004/4/4 11:15,12,0,58,0,18.5,0,43.6,0,17.5,0,14.7
2004/4/4 11:30,10.9,0,74,0,18.4,0,43.7,0,17.5,0,14.7
2004/4/4 11:45,10.7,0,70,0,18.4,0,43.7,0,17.5,0,14.7
2004/4/4 12:00,11.1,0,65,0,18.3,0,43.8,0,17.5,0,14.7
2004/4/4 12:15,12.1,0,55,0,18.3,0,43.6,0,17.5,0,14.7
2004/4/4 12:30,13,0,51,0,18.4,0,43.5,0,17.5,0,14.7
2004/4/4 12:45,13.6,0,52,0,18.4,0,43.4,0,17.6,0,14.7
2004/4/4 13:00,12.3,0,60,0,18.4,0,43.4,0,17.6,0,14.7
2004/4/4 13:15,12,0,59,0,18.4,0,43.4,0,17.6,0,14.2
2004/4/4 13:30,11.6,0,63,0,18.3,0,43.5,0,17.6,0,14.2
2004/4/4 13:45,11,0,64,0,18.3,0,43.2,0,17.6,0,14.2
2004/4/4 14:00,10.8,0,66,0,18.3,0,43.1,0,17.5,0,14.2
2004/4/4 14:15,11,0,69,0,18.2,0,43.2,0,17.5,0,14.2
2004/4/4 14:30,11.6,0,67,0,18.2,0,43.3,0,17.5,0,14.2
2004/4/4 14:45,11.8,0,67,0,18.2,0,44.1,0,17.5,0,14.2
2004/4/4 15:00,13.2,0,58,0,18.5,0,43.3,0,17.6,0,14.3
2004/4/4 15:15,12.3,0,57,0,18.2,0,43.8,0,17.6,0,14.3
2004/4/4 15:30,13.1,0,54,0,18.2,0,44,0,17.6,0,14.3
2004/4/4 15:45,12.6,0,53,0,18.1,0,44,0,17.6,0,14.3
2004/4/4 16:00,12.3,0,54,0,18.1,0,44.1,0,17.5,0,14.3
2004/4/4 16:15,12.3,0,52,0,18,0,44.1,0,17.5,0,14.3
2004/4/4 16:30,12.2,0,49,0,18,0,44.1,0,17.5,0,14.3
2004/4/4 16:45,12.2,0,48,0,18,0,43.9,0,17.5,0,14.3
2004/4/4 17:00,12.1,0,48,0,17.9,0,43.9,0,17.5,0,14.3
2004/4/4 17:15,12,0,52,0,17.9,0,43.8,0,17.4,0,14.3
2004/4/4 17:30,11.8,0,52,0,17.8,0,43.9,0,17.4,0,14.3
2004/4/4 17:45,11.8,0,51,0,17.8,0,43.9,0,17.4,0,14.3
2004/4/4 18:00,11.4,0,48,0,17.8,0,43.9,0,17.4,0,14.3
2004/4/4 18:15,11.2,0,52,0,17.7,0,43.8,0,17.4,0,14.3
2004/4/4 18:30,11.1,0,53,0,17.6,0,43.8,0,17.3,0,14.3
2004/4/4 18:45,11.2,0,53,0,17.6,0,43.7,0,17.3,0,14.3
2004/4/4 19:00,11,0,55,0,17.5,0,43.7,0,17.2,0,14.4
2004/4/4 19:15,10.6,0,56,0,17.5,0,43.7,0,17.2,0,14.4
2004/4/4 19:30,10.4,0,57,0,17.4,0,43.6,0,17.1,0,14.4
2004/4/4 19:45,10.4,0,58,0,17.4,0,43.5,0,17.1,0,14.4
2004/4/4 20:00,10.2,0,59,0,17.3,0,43.5,0,17.1,0,14.4
2004/4/4 20:15,10,0,62,0,17.2,0,43.4,0,17,0,14.4
2004/4/4 20:30,9.6,0,65,0,17.2,0,43.4,0,17,0,14.4
2004/4/4 20:45,9,0,70,0,17.1,0,43.4,0,16.9,0,14.4
2004/4/4 21:00,8.5,0,74,0,17.1,0,43.4,0,16.8,0,14.4
2004/4/4 21:15,8.2,0,76,0,17,0,43.3,0,16.8,0,14.4
2004/4/4 21:30,8.2,0,78,0,16.8,0,43.1,0,16.7,0,14.4
2004/4/4 21:45,8.2,0,76,0,17,0,43.4,0,16.7,0,14.4
2004/4/4 22:00,7.9,0,76,0,17,0,43.4,0,16.6,0,14.1
2004/4/4 22:15,7.7,0,77,0,17.1,0,44.2,0,16.5,0,14.1
2004/4/4 22:30,7.5,0,78,0,17.6,0,46,0,16.5,0,14.1
2004/4/4 22:45,7.6,0,78,0,18.2,0,47.5,0,16.4,0,14.1
2004/4/4 23:00,7.4,0,79,0,18.9,0,49.2,0,16.4,0,14.1
2004/4/4 23:15,7.4,0,78,0,19.4,0,50.4,0,16.3,0,14.1
2004/4/4 23:30,7.2,0,79,0,19.4,0,46.7,0,16.4,0,14.1
2004/4/4 23:45,7.1,0,79,0,19.8,0,47.3,0,16.4,0,14.1
2004/4/5 0:00,7,0,79,0,20.4,0,48.5,0,16.3,0,14.1
2004/4/5 0:15,7.1,0,78,0,20.9,0,49.2,0,16.2,0,14.1
2004/4/5 0:30,7,0,78,0,21,0,49.1,0,16.2,0,14.1
2004/4/5 0:45,7,0,79,0,20.7,0,48.5,0,16.1,0,14.1
2004/4/5 1:00,7.1,0,78,0,20.4,0,48.4,0,16.1,0,14.1
2004/4/5 1:15,7,0,78,0,19.4,0,40.5,0,16.1,0,14
2004/4/5 1:30,6.8,0,78,0,19,0,40.4,0,16.1,0,14.1
2004/4/5 1:45,6.7,0,79,0,18.6,0,40.6,0,16,0,14
2004/4/5 2:00,6.6,0,80,0,18.3,0,40.7,0,16,0,14
2004/4/5 2:15,6.6,0,80,0,18.1,0,40.8,0,15.9,0,14
2004/4/5 2:30,6.4,0,81,0,17.9,0,41,0,15.9,0,14
2004/4/5 2:45,6.3,0,82,0,17.6,0,41.2,0,15.8,0,14
2004/4/5 3:00,6.1,0,83,0,17.5,0,41.4,0,15.7,0,14
2004/4/5 3:15,6.1,0,84,0,17.3,0,41.5,0,15.7,0,14
2004/4/5 3:30,6.1,0,84,0,17.1,0,41.7,0,15.6,0,14
2004/4/5 3:45,5.9,0,84,0,17,0,41.8,0,15.5,0,14
2004/4/5 4:00,5.9,0,85,0,16.9,0,41.9,0,15.4,0,14
2004/4/5 4:15,5.8,0,84,0,16.7,0,41.9,0,15.4,0,14
2004/4/5 4:30,5.8,0,84,0,16.6,0,41.9,0,15.3,0,14
2004/4/5 4:45,5.8,0,84,0,16.5,0,41.9,0,15.2,0,14
2004/4/5 5:00,5.8,0,83,0,16.4,0,41.9,0,15.1,0,14
2004/4/5 5:15,5.5,0,83,0,16.3,0,41.9,0,15.1,0,14
2004/4/5 5:30,5.5,0,84,0,16.2,0,42,0,15,0,13.9
2004/4/5 5:45,5.5,0,84,0,16.1,0,42,0,14.9,0,13.9
2004/4/5 6:00,5.6,0,84,0,16,0,42.2,0,14.9,0,13.9
2004/4/5 6:15,5.4,0,85,0,15.9,0,42.1,0,14.8,0,13.9
2004/4/5 6:30,5.4,0,85,0,15.8,0,42.1,0,14.8,0,13.9
2004/4/5 6:45,5.7,0,85,0,15.7,0,42.1,0,14.7,0,13.9
2004/4/5 7:00,6,0,84,0,15.6,0,42.2,0,14.7,0,13.9
2004/4/5 7:15,6.4,0,82,0,15.7,0,42.2,0,14.7,0,13.9
2004/4/5 7:30,6.9,0,79,0,15.7,0,42.5,0,14.7,0,13.8
2004/4/5 7:45,7.4,0,76,0,15.8,0,42.4,0,14.7,0,13.8
2004/4/5 8:00,7.9,0,73,0,15.8,0,42.6,0,14.7,0,13.8
2004/4/5 8:15,8.8,0,66,0,16,0,42.2,0,14.7,0,13.8
2004/4/5 8:30,9.7,0,63,0,16.1,0,42.1,0,14.8,0,13.8
2004/4/5 8:45,10.2,0,59,0,16.2,0,42.1,0,14.8,0,13.8
2004/4/5 9:00,11,0,57,0,16.2,0,42.1,0,14.9,0,13.7
2004/4/5 9:15,11.7,0,53,0,16.3,0,42.1,0,14.9,0,13.7
2004/4/5 9:30,12.1,0,53,0,16.4,0,42.1,0,15,0,13.7
2004/4/5 9:45,13,0,50,0,16.5,0,42.2,0,15.1,0,13.7
2004/4/5 10:00,13.5,0,48,0,16.6,0,42.2,0,15.2,0,13.7
2004/4/5 10:15,13.7,0,46,0,16.6,0,42.3,0,15.3,0,13.7
2004/4/5 10:30,14.2,0,44,0,16.7,0,42.4,0,15.4,0,13.7
2004/4/5 10:45,14.8,0,41,0,16.8,0,42.4,0,15.5,0,13.7
2004/4/5 11:00,14.8,0,41,0,16.8,0,42.5,0,15.6,0,13.6
2004/4/5 11:15,15.3,0,40,0,16.8,0,42.7,0,15.7,0,13.6
2004/4/5 11:30,16.1,0,39,0,16.9,0,42.9,0,15.9,0,13.6
2004/4/5 11:45,16.5,0,37,0,16.9,0,43,0,16,0,13.6
2004/4/5 12:00,16.9,0,37,0,17,0,43.2,0,16.2,0,13.6
2004/4/5 12:15,17.1,0,35,0,17,0,43.4,0,16.4,0,13.6
2004/4/5 12:30,17.2,0,36,0,17.1,0,43.6,0,16.6,0,13.6
2004/4/5 12:45,18.2,0,35,0,17.1,0,43.8,0,16.7,0,13.6
2004/4/5 13:00,18.4,0,35,0,17.2,0,43.9,0,16.9,0,13.6
2004/4/5 13:15,18.4,0,34,0,17.3,0,44.2,0,17.1,0,13.6
2004/4/5 13:30,18.4,0,34,0,17.4,0,44.2,0,17.3,0,13.6
2004/4/5 13:45,19.2,0,34,0,17.5,0,44.3,0,17.5,0,13.6
2004/4/5 14:00,19.7,0,34,0,17.6,0,44.3,0,17.7,0,13.6
2004/4/5 14:15,20.3,0,33,0,17.7,0,44.2,0,17.9,0,13.6
2004/4/5 14:30,19.2,0,36,0,17.8,0,44.3,0,18.1,0,13.6
2004/4/5 14:45,20.3,0,35,0,17.9,0,44.3,0,18.3,0,13.6
2004/4/5 15:00,22.7,0,30,0,18,0,44.3,0,18.5,0,13.6
2004/4/5 15:15,21,0,36,0,18.1,0,44.5,0,18.7,0,13.6
2004/4/5 15:30,20.9,0,36,0,18.2,0,44.5,0,18.9,0,13.6
2004/4/5 15:45,19.5,0,40,0,18.3,0,44.6,0,19.1,0,13.6
2004/4/5 16:00,20.2,0,40,0,18.4,0,44.6,0,19.3,0,13.6
2004/4/5 16:15,18.8,0,42,0,18.4,0,44.7,0,19.4,0,13.6
2004/4/5 16:30,18.2,0,46,0,18.5,0,44.7,0,19.6,0,13.7
2004/4/5 16:45,18,0,44,0,18.5,0,45.1,0,19.7,0,13.7
2004/4/5 17:00,17.6,0,45,0,18.5,0,45.2,0,19.8,0,13.7
2004/4/5 17:15,17.6,0,46,0,18.5,0,45.1,0,19.8,0,13.7
2004/4/5 17:30,16.9,0,48,0,18.4,0,45.1,0,19.9,0,13.7